FW1436 Weather Reports


time (UTC)temp
F
wind
direction
speed
knots
gust
knots
rain 1hr
in
rain 24hr
in
rain mn
in
humidity
%
barometer
mb
20260506081536 53 76 3.5 6.1 0.00 0.00 0.00 64 1011.2
20260506073029 51 101 2.6 6.1 0.00 0.00 0.00 69 1011.2
20260506071531 50 70 0.0 4.3 0.00 0.00 0.00 72 1011.2
20260506061524 48 326 0.0 0.9 0.00 0.00 0.00 75 1010.9
20260506044516 42 242 0.0 0.0 0.00 0.00 0.00 84 1010.5
20260506043014 43 242 0.0 0.0 0.00 0.00 0.00 81 1010.4
20260506041515 44 242 0.0 0.0 0.00 0.00 0.00 81 1010.3
20260506040013 43 242 0.0 0.0 0.00 0.00 0.00 81 1010.4
20260506034513 42 242 0.0 0.0 0.00 0.00 0.00 85 1010.5
20260506033010 42 242 0.0 0.0 0.00 0.00 0.00 83 1010.5
20260506031509 43 242 0.0 0.0 0.00 0.00 0.00 82 1010.4
20260506030016 43 242 0.0 0.0 0.00 0.00 0.00 81 1010.4
20260506024514 43 242 0.0 0.0 0.00 0.00 0.00 81 1010.3
20260506023003 44 242 0.0 0.0 0.00 0.00 0.00 80 1010.4
20260506021503 44 242 0.0 0.0 0.00 0.00 0.00 80 1010.4
20260506020002 44 242 0.0 0.0 0.00 0.00 0.00 80 1010.6
20260506014501 44 242 0.0 0.0 0.00 0.00 0.00 80 1010.4
20260506013101 44 242 0.0 0.0 0.00 0.00 0.00 80 1010.4
20260506011559 45 242 0.0 0.0 0.00 0.00 0.00 79 1010.5
20260506010057 45 242 0.0 0.0 0.00 0.00 0.00 78 1010.6
20260506004556 45 242 0.0 0.0 0.00 0.00 0.00 76 1010.6
20260506003054 45 242 0.0 1.7 0.00 0.00 0.00 76 1010.7
20260506001552 46 243 0.9 2.6 0.00 0.00 0.00 75 1010.7
20260506000049 47 169 0.0 0.0 0.00 0.00 0.00 73 1010.7
20260505234550 47 148 0.0 1.7 0.00 0.00 0.00 72 1010.6
20260505233044 48 162 0.0 0.9 0.00 0.00 0.00 71 1010.4
20260505231552 48 212 0.0 0.9 0.00 0.00 0.00 68 1010.4
20260505230052 49 261 0.0 0.9 0.00 0.00 0.00 67 1010.4
20260505224537 50 117 0.0 1.7 0.00 0.00 0.00 64 1010.3
20260505223036 50 121 0.0 0.9 0.00 0.00 0.00 63 1010.2
20260505221535 50 158 0.0 0.9 0.00 0.00 0.00 62 1010.3
20260505220032 51 124 0.0 2.6 0.00 0.00 0.00 62 1010.4
20260505214530 51 98 0.0 0.9 0.00 0.00 0.00 60 1010.4
20260505213030 52 98 0.0 1.7 0.00 0.00 0.00 58 1010.4
20260505211529 53 68 0.0 0.9 0.00 0.00 0.00 57 1010.4
20260505210030 54 314 0.0 0.0 0.00 0.00 0.00 54 1010.3
20260505204530 54 34 0.0 3.5 0.00 0.00 0.00 54 1010.3
20260505203028 55 302 0.0 2.6 0.00 0.00 0.00 52 1010.1
20260505201529 55 18 0.0 2.6 0.00 0.00 0.00 52 1010.1
20260505200028 56 262 0.0 3.5 0.00 0.00 0.00 50 1009.9
20260505194526 57 317 0.9 5.2 0.00 0.00 0.00 48 1009.7
20260505193025 57 316 1.7 5.2 0.00 0.00 0.00 47 1009.6
20260505191527 58 303 1.7 7.0 0.00 0.00 0.00 45 1009.5
20260505190024 59 287 2.6 8.7 0.00 0.00 0.00 43 1009.4
20260505184525 61 282 2.6 8.7 0.00 0.00 0.00 41 1009.2
20260505183032 62 286 4.3 8.7 0.00 0.00 0.00 40 1009.2
20260505181522 62 354 3.5 8.7 0.00 0.00 0.00 38 1009.1
20260505180040 63 28 3.5 8.7 0.00 0.00 0.00 38 1009.0
20260505174520 63 307 4.3 10.4 0.00 0.00 0.00 37 1009.0
20260505173020 62 320 6.1 13.0 0.00 0.00 0.00 38 1009.0
20260505171519 63 324 3.5 11.3 0.00 0.00 0.00 37 1008.9
20260505170023 63 233 5.2 12.2 0.00 0.00 0.00 36 1008.9
20260505164518 63 8 0.9 8.7 0.00 0.00 0.00 36 1008.9
20260505163017 63 339 3.5 12.2 0.00 0.00 0.00 36 1008.9
20260505161517 63 311 3.5 12.2 0.00 0.00 0.00 37 1009.0
20260505153015 64 4 4.3 12.2 0.00 0.00 0.00 37 1009.0
20260505151514 63 311 5.2 13.9 0.00 0.00 0.00 38 1008.9
20260505124505 63 247 2.6 12.2 0.00 0.00 0.00 43 1009.3
20260505123102 62 240 3.5 12.2 0.00 0.00 0.00 45 1009.4
20260505121558 61 247 1.7 9.6 0.00 0.00 0.00 45 1009.5
20260505120059 62 258 3.5 9.6 0.00 0.00 0.00 44 1009.4
20260505114559 61 311 0.0 8.7 0.00 0.00 0.00 47 1009.6
20260505113056 62 275 2.6 11.3 0.00 0.00 0.00 45 1009.8
20260505111551 61 285 2.6 9.6 0.00 0.00 0.00 44 1009.9
20260505101601 60 290 1.7 7.8 0.00 0.00 0.00 49 1010.3
20260505100100 59 324 0.9 5.2 0.00 0.00 0.00 50 1010.4
20260505094543 60 189 1.7 5.2 0.00 0.00 0.00 49 1010.2
20260505093042 59 267 0.0 4.3 0.00 0.00 0.00 51 1010.3
20260505091539 58 252 0.0 2.6 0.00 0.00 0.00 55 1010.4
20260505090040 57 298 0.9 2.6 0.00 0.00 0.00 54 1010.3
20260505084536 57 222 0.0 2.6 0.00 0.00 0.00 57 1010.3
20260505083036 57 229 1.7 3.5 0.00 0.00 0.00 59 1010.3